Radiation Dose at Monitoring Post of Fukushima Daiichi Nuclear Power Station
Date,Time,MP-1(microSv/h),MP-2(microSv/h),MP-3(microSv/h),MP-4(microSv/h),MP-5(microSv/h),MP-6(microSv/h),MP-7(microSv/h),MP-8(microSv/h),Wind Direction,Wind Velocity(m/s),Rain
2019/01/14,00:00,0.790,1.181,0.829,1.512,1.077,0.451,0.800,0.757,northwest,6.2,No
2019/01/14,00:10,0.788,1.183,0.830,1.510,1.078,0.452,0.801,0.757,northwest,6.7,No
2019/01/14,00:20,0.789,1.183,0.829,1.511,1.079,0.450,0.801,0.757,northwest,6.8,No
2019/01/14,00:30,0.791,1.180,0.829,1.511,1.077,0.451,0.801,0.758,northwest,6.2,No
2019/01/14,00:40,0.790,1.182,0.828,1.513,1.078,0.450,0.801,0.759,northwest,6.6,No
2019/01/14,00:50,0.790,1.182,0.828,1.513,1.078,0.453,0.799,0.757,northwest,6.8,No
2019/01/14,01:00,0.788,1.182,0.830,1.510,1.081,0.450,0.799,0.758,northwest,6.5,No
2019/01/14,01:10,0.792,1.182,0.829,1.514,1.077,0.452,0.800,0.758,north-northwest,6.4,No
2019/01/14,01:20,0.790,1.181,0.828,1.511,1.079,0.450,0.798,0.757,northwest,6.9,No
2019/01/14,01:30,0.789,1.182,0.828,1.512,1.079,0.449,0.799,0.756,northwest,6.4,No
2019/01/14,01:40,0.790,1.183,0.829,1.510,1.077,0.450,0.799,0.757,northwest,6.8,No
2019/01/14,01:50,0.786,1.181,0.827,1.511,1.078,0.451,0.799,0.758,northwest,6.6,No
2019/01/14,02:00,0.789,1.181,0.828,1.511,1.077,0.451,0.799,0.759,north-northwest,6.8,No
2019/01/14,02:10,0.789,1.181,0.827,1.511,1.078,0.453,0.800,0.759,north-northwest,7.5,No
2019/01/14,02:20,0.790,1.182,0.828,1.511,1.076,0.451,0.799,0.758,northwest,7.1,No
2019/01/14,02:30,0.789,1.183,0.829,1.511,1.077,0.451,0.800,0.757,northwest,7.0,No
2019/01/14,02:40,0.788,1.182,0.829,1.513,1.075,0.450,0.799,0.757,northwest,6.9,No
2019/01/14,02:50,0.790,1.181,0.827,1.513,1.081,0.450,0.798,0.756,northwest,7.5,No
2019/01/14,03:00,0.789,1.181,0.829,1.512,1.077,0.451,0.799,0.757,northwest,7.4,No
2019/01/14,03:10,0.790,1.183,0.829,1.513,1.076,0.451,0.800,0.758,north-northwest,6.6,No
2019/01/14,03:20,0.791,1.184,0.829,1.511,1.080,0.450,0.800,0.757,north-northwest,7.0,No
2019/01/14,03:30,0.791,1.182,0.829,1.511,1.077,0.451,0.800,0.758,north-northwest,7.0,No
2019/01/14,03:40,0.789,1.183,0.827,1.512,1.080,0.452,0.799,0.758,north-northwest,6.5,No
2019/01/14,03:50,0.791,1.181,0.831,1.512,1.076,0.449,0.798,0.758,north-northwest,6.6,No
2019/01/14,04:00,0.790,1.182,0.829,1.510,1.077,0.450,0.797,0.757,northwest,7.4,No
2019/01/14,04:10,0.788,1.178,0.828,1.512,1.077,0.450,0.799,0.757,northwest,6.9,No
2019/01/14,04:20,0.788,1.179,0.828,1.511,1.078,0.449,0.799,0.758,northwest,7.4,No
2019/01/14,04:30,0.789,1.183,0.826,1.512,1.077,0.452,0.800,0.758,north-northwest,7.6,No
2019/01/14,04:40,0.788,1.181,0.827,1.512,1.076,0.450,0.800,0.757,north-northwest,7.2,No
2019/01/14,04:50,0.789,1.181,0.830,1.512,1.076,0.451,0.797,0.756,north-northwest,7.0,No
2019/01/14,05:00,0.789,1.178,0.830,1.511,1.075,0.449,0.799,0.759,north-northwest,6.6,No
2019/01/14,05:10,0.788,1.182,0.830,1.511,1.079,0.450,0.799,0.758,north-northwest,6.9,No
2019/01/14,05:20,0.789,1.182,0.829,1.509,1.079,0.451,0.800,0.757,north-northwest,7.5,No
2019/01/14,05:30,0.790,1.181,0.829,1.512,1.079,0.451,0.799,0.759,north-northwest,7.5,No
2019/01/14,05:40,0.790,1.182,0.829,1.512,1.077,0.450,0.799,0.757,northwest,6.7,No
2019/01/14,05:50,0.788,1.182,0.828,1.510,1.077,0.451,0.801,0.757,north-northwest,5.9,No
2019/01/14,06:00,0.790,1.182,0.828,1.509,1.077,0.451,0.801,0.759,north-northwest,6.5,No
2019/01/14,06:10,0.788,1.181,0.829,1.513,1.077,0.450,0.801,0.757,north-northwest,6.3,No
2019/01/14,06:20,0.789,1.180,0.830,1.510,1.079,0.450,0.799,0.760,north-northwest,6.4,No
2019/01/14,06:30,0.790,1.184,0.828,1.512,1.076,0.451,0.800,0.756,northwest,6.7,No
2019/01/14,06:40,0.790,1.182,0.829,1.510,1.077,0.450,0.799,0.757,northwest,6.8,No
2019/01/14,06:50,0.789,1.181,0.830,1.511,1.076,0.451,0.798,0.757,northwest,7.3,No
2019/01/14,07:00,0.790,1.179,0.827,1.512,1.077,0.451,0.798,0.759,north-northwest,7.0,No
2019/01/14,07:10,0.791,1.181,0.830,1.511,1.076,0.450,0.798,0.758,north-northwest,6.4,No
2019/01/14,07:20,0.790,1.181,0.827,1.511,1.078,0.451,0.798,0.758,north-northwest,5.8,No
2019/01/14,07:30,0.789,1.182,0.829,1.510,1.077,0.451,0.798,0.758,north-northwest,5.9,No
2019/01/14,07:40,0.788,1.181,0.830,1.512,1.077,0.449,0.797,0.758,north-northwest,6.3,No
2019/01/14,07:50,0.791,1.181,0.829,1.510,1.077,0.450,0.798,0.760,north-northwest,6.2,No
2019/01/14,08:00,0.791,1.180,0.829,1.509,1.077,0.450,0.797,0.758,north-northwest,6.9,No
2019/01/14,08:10,0.790,1.180,0.827,1.511,1.076,0.450,0.800,0.758,north-northwest,6.8,No
2019/01/14,08:20,0.790,1.179,0.827,1.511,1.077,0.451,0.799,0.757,north-northwest,6.5,No
2019/01/14,08:30,0.789,1.179,0.827,1.509,1.078,0.451,0.800,0.759,north-northwest,5.6,No
2019/01/14,08:40,0.792,1.181,0.828,1.512,1.079,0.450,0.800,0.760,north-northwest,6.0,No
2019/01/14,08:50,0.790,1.178,0.829,1.510,1.077,0.450,0.800,0.758,north-northwest,5.6,No
2019/01/14,09:00,0.791,1.178,0.828,1.513,1.078,0.451,0.799,0.758,north-northwest,5.5,No
2019/01/14,09:10,0.789,1.178,0.827,1.509,1.079,0.451,0.800,0.758,north,5.0,No
2019/01/14,09:20,0.793,1.177,0.826,1.512,1.077,0.451,0.800,0.759,north-northwest,5.3,No
2019/01/14,09:30,0.791,1.178,0.828,1.512,1.076,0.450,0.802,0.757,north-northwest,4.5,No
2019/01/14,09:40,0.791,1.178,0.828,1.510,1.079,0.450,0.800,0.758,north-northwest,4.7,No
2019/01/14,09:50,0.791,1.177,0.826,1.511,1.079,0.452,0.802,0.758,north,4.0,No
2019/01/14,10:00,0.792,1.178,0.829,1.513,1.080,0.451,0.800,0.757,north,3.8,No
2019/01/14,10:10,0.791,1.178,0.827,1.513,1.080,0.452,0.801,0.759,north,4.4,No
2019/01/14,10:20,0.791,1.178,0.829,1.511,1.079,0.449,0.800,0.758,north,4.7,No
2019/01/14,10:30,0.789,1.180,0.829,1.513,1.080,0.451,0.799,0.757,north,5.1,No
2019/01/14,10:40,0.790,1.180,0.828,1.512,1.077,0.450,0.800,0.758,north,4.9,No
2019/01/14,10:50,0.792,1.179,0.829,1.510,1.079,0.452,0.799,0.757,north,5.8,No
2019/01/14,11:00,0.789,1.179,0.828,1.514,1.078,0.452,0.797,0.759,north-northeast,5.6,No
2019/01/14,11:10,0.791,1.179,0.828,1.512,1.082,0.451,0.799,0.759,north,6.0,No
2019/01/14,11:20,0.790,1.182,0.830,1.512,1.079,0.452,0.800,0.758,north-northeast,6.7,No
2019/01/14,11:30,0.790,1.179,0.830,1.512,1.078,0.452,0.798,0.759,north,5.7,No
2019/01/14,11:40,0.793,1.180,0.828,1.513,1.079,0.452,0.798,0.758,north-northeast,6.0,No
2019/01/14,11:50,0.792,1.179,0.828,1.510,1.081,0.453,0.799,0.759,north,5.8,No
2019/01/14,12:00,0.792,1.179,0.830,1.511,1.083,0.451,0.800,0.759,north-northeast,5.4,No
2019/01/14,12:10,0.793,1.179,0.831,1.513,1.081,0.450,0.800,0.758,north,5.8,No
2019/01/14,12:20,0.793,1.180,0.830,1.513,1.082,0.452,0.800,0.758,north,6.2,No
2019/01/14,12:30,0.793,1.182,0.828,1.513,1.081,0.450,0.798,0.758,north-northeast,5.2,No
2019/01/14,12:40,0.792,1.178,0.830,1.513,1.080,0.451,0.799,0.761,north-northeast,5.5,No
2019/01/14,12:50,0.794,1.178,0.831,1.512,1.081,0.452,0.800,0.760,north-northeast,5.2,No
2019/01/14,13:00,0.793,1.175,0.830,1.514,1.080,0.452,0.800,0.758,north,4.7,No
2019/01/14,13:10,0.792,1.176,0.830,1.513,1.080,0.452,0.800,0.758,north-northeast,5.0,No
2019/01/14,13:20,0.795,1.175,0.830,1.513,1.079,0.452,0.801,0.759,north,4.6,No
2019/01/14,13:30,0.792,1.177,0.831,1.513,1.082,0.451,0.799,0.759,north,4.8,No
2019/01/14,13:40,0.793,1.180,0.832,1.510,1.083,0.450,0.800,0.761,north-northeast,5.8,No
2019/01/14,13:50,0.794,1.178,0.831,1.514,1.081,0.452,0.801,0.757,north-northeast,4.7,No
2019/01/14,14:00,0.794,1.176,0.830,1.512,1.081,0.451,0.800,0.756,north,4.0,No
2019/01/14,14:10,0.794,1.180,0.829,1.513,1.082,0.452,0.798,0.758,north,5.0,No
2019/01/14,14:20,0.792,1.180,0.829,1.511,1.080,0.453,0.802,0.758,north,5.0,No
2019/01/14,14:30,0.792,1.181,0.831,1.513,1.081,0.451,0.800,0.758,north,5.3,No
2019/01/14,14:40,0.791,1.180,0.831,1.514,1.081,0.451,0.801,0.758,north,5.0,No
2019/01/14,14:50,0.793,1.181,0.828,1.513,1.082,0.450,0.800,0.758,north-northeast,4.6,No
2019/01/14,15:00,0.794,1.182,0.831,1.510,1.081,0.452,0.803,0.759,north-northeast,4.3,No
2019/01/14,15:10,0.793,1.181,0.829,1.513,1.083,0.451,0.802,0.756,north,4.7,No
2019/01/14,15:20,0.793,1.180,0.830,1.516,1.081,0.452,0.802,0.758,north,4.1,No
2019/01/14,15:30,0.791,1.182,0.831,1.511,1.082,0.451,0.803,0.758,north,3.9,No
2019/01/14,15:40,0.792,1.181,0.831,1.511,1.079,0.452,0.803,0.756,north,3.9,No
2019/01/14,15:50,0.793,1.183,0.830,1.512,1.081,0.450,0.800,0.759,north,3.7,No
2019/01/14,16:00,0.792,1.182,0.831,1.511,1.082,0.451,0.803,0.758,north,3.7,No
2019/01/14,16:10,0.793,1.184,0.828,1.512,1.078,0.449,0.801,0.759,north,3.5,No
2019/01/14,16:20,0.793,1.183,0.828,1.511,1.080,0.452,0.804,0.758,north,4.3,No
2019/01/14,16:30,0.793,1.187,0.829,1.515,1.082,0.452,0.802,0.757,north,3.8,No
2019/01/14,16:40,0.791,1.184,0.829,1.514,1.080,0.450,0.801,0.757,north,4.1,No
2019/01/14,16:50,0.790,1.183,0.830,1.512,1.081,0.450,0.802,0.757,north-northwest,4.2,No
2019/01/14,17:00,0.792,1.184,0.829,1.511,1.078,0.450,0.798,0.758,north-northwest,4.6,No
2019/01/14,17:10,0.791,1.182,0.827,1.510,1.080,0.452,0.799,0.757,north-northwest,4.6,No
2019/01/14,17:20,0.792,1.185,0.830,1.511,1.077,0.451,0.800,0.756,north-northwest,4.5,No
2019/01/14,17:30,0.790,1.183,0.828,1.511,1.079,0.450,0.799,0.757,north-northwest,4.8,No
2019/01/14,17:40,0.789,1.181,0.829,1.511,1.079,0.451,0.800,0.756,north-northwest,4.3,No
2019/01/14,17:50,0.790,1.182,0.829,1.512,1.079,0.451,0.799,0.758,north-northwest,4.7,No
2019/01/14,18:00,0.789,1.184,0.827,1.510,1.080,0.450,0.799,0.757,northwest,4.1,No
2019/01/14,18:10,0.789,1.184,0.825,1.511,1.079,0.449,0.800,0.757,north-northwest,4.3,No
2019/01/14,18:20,0.791,1.184,0.825,1.510,1.078,0.451,0.800,0.757,northwest,3.5,No
2019/01/14,18:30,0.790,1.185,0.825,1.512,1.080,0.449,0.799,0.756,northwest,4.6,No
2019/01/14,18:40,0.789,1.183,0.821,1.513,1.079,0.450,0.798,0.756,northwest,4.1,No
2019/01/14,18:50,0.792,1.182,0.824,1.510,1.080,0.449,0.799,0.757,northwest,5.2,No
2019/01/14,19:00,0.790,1.182,0.825,1.513,1.078,0.448,0.799,0.757,northwest,5.5,No
2019/01/14,19:10,0.791,1.183,0.822,1.512,1.080,0.450,0.799,0.756,northwest,5.1,No
2019/01/14,19:20,0.791,1.181,0.823,1.507,1.080,0.450,0.796,0.756,north-northwest,3.0,No
2019/01/14,19:30,0.789,1.180,0.823,1.510,1.079,0.449,0.798,0.758,northwest,4.9,No
2019/01/14,19:40,0.789,1.183,0.821,1.508,1.077,0.450,0.798,0.757,north-northwest,2.8,No
2019/01/14,19:50,0.788,1.185,0.822,1.511,1.079,0.451,0.800,0.756,northwest,3.0,No
2019/01/14,20:00,0.790,1.185,0.822,1.508,1.078,0.450,0.800,0.757,northwest,3.4,No
2019/01/14,20:10,0.788,1.183,0.821,1.509,1.079,0.449,0.798,0.756,west-northwest,3.7,No
2019/01/14,20:20,0.788,1.183,0.822,1.510,1.075,0.451,0.798,0.755,west-northwest,3.8,No
2019/01/14,20:30,0.788,1.184,0.820,1.510,1.078,0.450,0.799,0.756,west-northwest,3.6,No
2019/01/14,20:40,0.788,1.183,0.819,1.512,1.078,0.449,0.799,0.756,west-northwest,3.6,No
2019/01/14,20:50,0.790,1.181,0.822,1.510,1.081,0.451,0.797,0.757,west-northwest,3.2,No
2019/01/14,21:00,0.790,1.183,0.821,1.510,1.079,0.451,0.798,0.753,west-northwest,3.1,No
2019/01/14,21:10,0.789,1.181,0.825,1.511,1.075,0.451,0.798,0.758,west-northwest,4.0,No
2019/01/14,21:20,0.789,1.182,0.825,1.513,1.078,0.451,0.797,0.756,west-northwest,3.7,No
2019/01/14,21:30,0.788,1.181,0.822,1.510,1.077,0.450,0.798,0.758,west-northwest,3.7,No
2019/01/14,21:40,0.789,1.180,0.823,1.509,1.078,0.449,0.799,0.756,west-northwest,3.8,No
2019/01/14,21:50,0.788,1.179,0.823,1.508,1.077,0.450,0.798,0.756,west-northwest,3.0,No
2019/01/14,22:00,0.789,1.180,0.823,1.511,1.078,0.450,0.798,0.755,west-northwest,3.1,No
2019/01/14,22:10,0.788,1.181,0.826,1.510,1.079,0.451,0.797,0.758,west-northwest,3.0,No
2019/01/14,22:20,0.787,1.180,0.822,1.508,1.078,0.451,0.798,0.756,west-northwest,3.1,No
2019/01/14,22:30,0.785,1.179,0.824,1.511,1.077,0.450,0.798,0.756,west-northwest,3.0,No
2019/01/14,22:40,0.787,1.184,0.828,1.512,1.077,0.449,0.798,0.755,west-northwest,2.6,No
2019/01/14,22:50,0.788,1.180,0.825,1.509,1.077,0.450,0.799,0.756,west-northwest,2.5,No
2019/01/14,23:00,0.787,1.181,0.827,1.509,1.078,0.450,0.797,0.758,west-northwest,1.5,No
2019/01/14,23:10,0.789,1.181,0.824,1.510,1.077,0.450,0.798,0.755,west-northwest,2.2,No
2019/01/14,23:20,0.788,1.183,0.825,1.507,1.076,0.450,0.799,0.757,west-northwest,2.9,No
2019/01/14,23:30,0.789,1.180,0.823,1.511,1.077,0.450,0.800,0.756,west-northwest,2.8,No
2019/01/14,23:40,0.790,1.180,0.820,1.510,1.078,0.448,0.798,0.756,northwest,2.9,No
2019/01/14,23:50,0.789,1.181,0.819,1.512,1.076,0.449,0.797,0.756,northwest,2.5,No
